Santa Monica, CA

7:59 PM PDT on March 24, 2017 (GMT -0700)
Santa Monica Municipal

Weather History for KSMO - November, 2013

Change the Weather History Date:

Friday, November 29, 2013

  Actual Average Record
Temperature  
Mean Temperature 60 °F -  
Max Temperature 66 °F 69 °F 89 °F (1953)
Min Temperature 55 °F 48 °F 39 °F (1952)
Degree Days  
Heating Degree Days 4    
Growing Degree Days 10 (Base 50)    
Moisture  
Dew Point 51 °F    
Average Humidity 76    
Maximum Humidity 87    
Minimum Humidity 59    
Precipitation  
Precipitation 0.00 in - - ()
Sea Level Pressure  
Sea Level Pressure 30.13 in    
Wind  
Wind Speed 2 mph (NE)    
Max Wind Speed 8 mph    
Max Gust Speed -    
Visibility 9 miles    
Events Rain    
Averages and records for this station are not official NWS values.
T = Trace of Precipitation, MM = Missing Value Source: NWS Daily Summary

Daily Weather History Graph

Daily Weather History Graph

Search for Another Location

Airport or City:

Trip Planner

Search our weather history database for the weather conditions in past years. The results will help you decide how hot, cold, wet, or windy it might be!

Date:

Astronomy

Nov. 29, 2013 Rise Set
Actual Time 6:39 AM PST 4:44 PM PST
Civil Twilight 6:12 AM PST 5:12 PM PST
Nautical Twilight 5:41 AM PST 5:42 PM PST
Astronomical Twilight 5:11 AM PST 6:13 PM PST
Moon 2:59 AM PST (11/29) 2:24 PM PST (11/29)
Length of Visible Light 10h 59m
Length of Day
10h 05m
Waning Crescent, 13% of the Moon is Illuminated
Nov 29
Waning Crescent
Dec 2
New
Dec 9
First Quarter
Dec 17
Full
Dec 25
Last Quarter

Hourly Weather History & Observations

Time (PST) Temp. Dew Point Humidity Pressure Visibility Wind Dir Wind Speed Gust Speed Precip Events Conditions
12:51 AM 57.9 °F 48.9 °F 72% 30.06 in 10.0 mi Calm Calm - N/A   Overcast
1:51 AM 59.0 °F 48.9 °F 69% 30.07 in 10.0 mi NNE 3.5 mph - N/A   Overcast
2:51 AM 57.9 °F 52.0 °F 81% 30.08 in 10.0 mi Calm Calm - 0.00 in Rain Light Rain
3:51 AM 57.9 °F 52.0 °F 81% 30.07 in 7.0 mi NNW 3.5 mph - 0.00 in Rain Light Rain
4:51 AM 57.9 °F 50.0 °F 75% 30.06 in 10.0 mi North 5.8 mph - 0.00 in Rain Light Rain
5:51 AM 57.9 °F 51.1 °F 78% 30.09 in 10.0 mi Calm Calm - 0.00 in   Overcast
6:51 AM 57.0 °F 50.0 °F 77% 30.11 in 10.0 mi East 3.5 mph - N/A   Overcast
7:51 AM 57.9 °F 50.0 °F 75% 30.12 in 10.0 mi NE 3.5 mph - 0.00 in Rain Light Rain
8:51 AM 57.0 °F 52.0 °F 83% 30.15 in 4.0 mi NE 3.5 mph - 0.00 in Rain Rain
9:51 AM 57.9 °F 53.1 °F 84% 30.17 in 5.0 mi NE 8.1 mph - 0.00 in Rain Rain
10:51 AM 59.0 °F 51.1 °F 75% 30.18 in 10.0 mi Calm Calm - N/A   Overcast
11:51 AM 57.9 °F 52.0 °F 81% 30.15 in 8.0 mi ENE 3.5 mph - N/A Rain Light Rain
12:51 PM 57.9 °F 54.0 °F 87% 30.14 in 7.0 mi Variable 4.6 mph - N/A Rain Rain
1:51 PM 60.1 °F 55.0 °F 83% 30.12 in 10.0 mi Calm Calm - N/A   Overcast
2:51 PM 64.0 °F 52.0 °F 65% 30.10 in 10.0 mi NE 5.8 mph - N/A   Mostly Cloudy
3:51 PM 66.0 °F 51.1 °F 59% 30.11 in 10.0 mi NNE 3.5 mph - N/A   Scattered Clouds
4:51 PM 63.0 °F 51.1 °F 65% 30.12 in 10.0 mi Calm Calm - N/A   Overcast
5:51 PM 62.1 °F 53.1 °F 72% 30.13 in 10.0 mi Calm Calm - N/A   Overcast
6:51 PM 61.0 °F 51.1 °F 70% 30.14 in 10.0 mi Calm Calm - N/A   Scattered Clouds
7:51 PM 59.0 °F 51.1 °F 75% 30.17 in 10.0 mi Calm Calm - N/A   Partly Cloudy
8:51 PM 57.9 °F 51.1 °F 78% 30.18 in 10.0 mi Calm Calm - N/A   Clear
9:51 PM 57.0 °F 48.9 °F 74% 30.18 in 10.0 mi Calm Calm - N/A   Clear
10:51 PM 55.9 °F 48.9 °F 77% 30.17 in 9.0 mi Calm Calm - N/A   Clear
11:51 PM 55.0 °F 48.0 °F 77% 30.16 in 10.0 mi Calm Calm - N/A   Clear